星链-34242 (STARLINK-34242)

导读

STARLINK-34242是美国于2025年7月2日发射的星链卫星,隶属于SpaceX公司的星链项目。该项目旨在构建全球卫星互联网星座,为全球偏远地区、海洋上空等网络覆盖薄弱区域提供高速互联网服务。作为星链组网的一环,它进一步扩充了星链星座的卫星数量,提升了星座的覆盖能力与服务稳定性,推动全球互联网络基础设施建设。

Basic Information
目录编号:
64727
目录名称:
STARLINK-34242
国际标识:
2025-144D
轨道中心:
EARTH
卫星名称:
星链-34242
卫星全名:
星链-34242 (STARLINK-34242)
卫星状态:
在轨 (已飞行430 天)
发射日期:
2025-07-02 UTC
国别 :
美国 (US)
星等 :
--
Orbit Information
数据来源 国际轨道数据
星历时间: 2026-09-05T08:00:02+0800
13小时前
查看轨道信息
半长轴: 6840.907km
偏心率: 0.0001086
轨道倾角: 53.160°
近地点辐角 82.043°
升交点赤经 67.817°
平近点角 147.389°
近地点: 462.027km
远地点: 463.513km
周期: 93.849分钟
每日圈数: 15.343776
Detailed Information
固有亮度:
5
最大亮度:
2.5
卫星平台:
Starlink V1.0
覆盖范围:
全球
运营商:
太空探索技术公司
运营商所在国:
美国
制造商(研发单位):
太空探索技术公司
制造商所在国:
美国
使用方式:
暂无
Satellite Introduction
Starlink 计划是 SpaceX 推出的全球卫星互联网项目,通过发射低轨道卫星,为全球尤其是偏远地区提供高速、低延迟的互联网服务。自 2019 年起,Starlink 已部署数千颗卫星,旨在缩小全球数字鸿沟,推动互联网普及。该项目还为军事、航空等行业提供通信支持,带来广泛经济效益。
2D Orbit Map
3D Orbit Map
Orbit Altitude Analysis Chart
Orbit Inclination Analysis Chart
Orbit Comprehensive Analysis Chart
View Comprehensive Chart
Conjunction Data List
Event ID Objects TCA Miss Dist (km) Collision Risk Probability Collision Risk Index (CRI) Action
CDM_260908-022105-341406-472721
2026-09-08T
02:21:46+0000
0.748 km
远距离
3.316683E-5 中风险 0.65
CDM_260907-222705-341406-472721
2026-09-07T
22:27:18+0000
0.751 km
远距离
3.282096E-5 中风险 0.65
CDM_260907-144305-883606-472721
2026-09-07T
14:43:55+0000
0.841 km
远距离
1.397266E-5 中风险 0.58
CDM_260907-122305-883606-472721
2026-09-07T
12:23:14+0000
1.673 km
极远距离
1.501991E-6 低风险 0.39
CDM_260905-202605-226306-472721
2026-09-05T
20:26:02+0000
2.697 km
极远距离
8.30435E-7 极低风险 0.33
CDM_260905-211205-226306-472721
2026-09-05T
21:12:57+0000
2.846 km
极远距离
7.747341E-7 极低风险 0.33